OBJECT B, 64088

Orbit data source: Space-Track

You're viewing an Uncataloged Satellite

Recently launched and/or uncataloged satellites may have evolving metadata. Metadata may include but not limited to: Owner, Maufacturer, Bus, Motor, and Mission.

OBJECT B, 64088 is a Chinese satellite in SSO that was launched on Wed, 21 May 2025 UTC via a LIJIAN-1 launch vehicle from the Jiuquan Satellite Launch Center, China (JSC). Unknown objects in Earth's orbit typically refer to objects detected orbiting the Earth but have not yet been identified or cataloged. These objects could be anything from previously untracked satellites, spent rocket stages, debris from satellite collisions, or even natural meteoroids temporarily captured by Earth's gravity.

Loading next visibility...
Identifier
64088, 2025-108B
Orbit
SSO
Last TLE update
7 hours ago
Origin
Flag of CNCN / PRC
Manufacturer
Unknown
Mission
Operational Commercial Radar Imaging
Bus & Motor
Unknown
Mass
Unknown
Launch date (UTC)
2025-05-21 (2 months ago)
Launch vehicle
LIJIAN-1
Launch site
Jiuquan Satellite Launch Center, China (JSC)
Object type
Unknown
Shape & HBR
Box + 3 Pan, 6 m
Radar Cross Section
3.533 m², Large (>1 m²)

Expand to show TLE details & history

TLE from 7 hours ago
0 OBJECT B
1 64088U 25108B   25192.20341467  .00004491  00000-0  25668-3 0  9996
2 64088  97.5092 267.2522 0015587 112.4662 247.8222 15.13099620  7688
Epoch: 2025-07-11T04:52Z
TLE epoch observation values (Epoch: 2025-07-11T04:52:55.027Z)
Latitude
0.00003°
Longitude
-95.33579°
Altitude
533.91 km
Speed
7.593 km/s
True Right ascension
17h 49m 00s
True Declination
0° 00' 00"
Sunlit
Object was in full shadow at epoch
Visualization orbit readout
Latitude
-31.52344°
Longitude
80.35087°
Altitude
540.547 km
Speed
7.59 km/s
Apparent Right ascension
08h 32m 38s
Apparent Declination
-48° 52' 37"
Sunlit
Object is in daylight
Visualization observer readout
Local Sidereal Time
00:27:49
Azimuth
122.555° SE
Elevation
-48.134°
Doppler factor
1
Orbital elements
Apogee altitude
534.491 km
Perigee altitude
512.976 km
Semi-major axis
6,901.87 km
Eccentricity
0.00156
Inclination
97.5092°
RAAN
267.2522°
Arg. of periapsis
112.4662°
True anomaly
Unknown
Mean anomaly
247.8222°
Eccentric anomaly
Unknown
Mean motion
3.78524 °/min
Orbital period
95.11 mins
BSTAR
0.00025668
Loading maneuver chart data...
Loading SW <> Apogee altitude chart data...
Loading historical data...
Loading historical data...
Loading historical data...
Loading historical data...
Loading historical data...
Loading historical data...
Loading historical data...
Other satellites on launch #108 in the year 2025 (2025-05-21 UTC)

OBJECT B Visibility forecast

Observer location: undefined°, undefined°

Span
Click to sort rows by Start time (UTC) header in descending order
Start Az.
Max El. time (UTC)
Max El. Az.
Max El.
End time (UTC)
End Az.
6 mins2025-07-11 18:08:40.394Z0.426° NNE2025-07-11 18:11:40.394Z265.317° W39.767°2025-07-11 18:14:40.394Z207.24° SW
6 mins2025-07-12 04:49:40.394Z148.693° SSE2025-07-12 04:51:40.394Z109.283° ESE38.208°2025-07-12 04:55:40.394Z357.015° N
|